DO1SC Weather Reports


time (UTC)temp
C
wind
direction
speed
KPH
gust
KPH
rain 1hr
cm
rain 24hr
cm
rain mn
cm
humidity
%
barometer
mb
20260507081023 8 288 6.4 14.5 0.00 0.00 0.00 94 1011.4
20260507080035 8 297 6.4 14.5 0.00 0.00 0.00 94 1011.3
20260507075027 8 303 4.8 9.7 0.00 0.00 0.00 94 1011.2
20260507074018 9 292 4.8 9.7 0.00 0.00 0.00 95 1011.2
20260507073030 8 320 3.2 6.4 0.00 0.00 0.00 96 1011.0
20260507072021 8 308 3.2 8.0 0.00 0.00 0.00 96 1010.8
20260507071034 8 307 3.2 6.4 0.00 0.00 0.00 96 1010.7
20260507070025 8 275 4.8 8.0 0.00 0.00 0.00 96 1010.8
20260507065017 8 304 3.2 8.0 0.00 0.00 0.00 96 1010.6
20260507064029 8 282 3.2 9.7 0.00 0.00 0.00 96 1010.6
20260507063021 8 295 1.6 4.8 0.00 0.00 0.00 96 1010.4
20260507062032 8 300 3.2 9.7 0.00 0.00 0.00 96 1010.3
20260507061023 8 283 1.6 4.8 0.00 0.00 0.00 97 1010.3
20260507060035 8 278 1.6 8.0 0.00 0.00 0.00 97 1010.1
20260507055026 8 282 3.2 9.7 0.00 0.00 0.00 97 1009.9
20260507054018 8 293 4.8 11.3 0.00 0.00 0.00 97 1009.8
20260507053029 9 306 6.4 11.3 0.00 0.00 0.00 98 1009.7
20260507052020 9 20 3.2 6.4 0.00 0.00 0.00 98 1009.6
20260507051031 9 85 3.2 6.4 0.00 0.00 0.00 98 1009.3
20260507050022 9 102 3.2 9.7 0.00 0.00 0.00 98 1009.3
20260507045037 9 37 1.6 4.8 0.00 0.00 0.00 98 1009.3
20260507044025 9 110 1.6 6.4 0.00 0.00 0.00 98 1009.1
20260507043036 9 128 3.2 9.7 0.00 0.00 0.00 98 1009.0
20260507042027 9 116 3.2 8.0 0.00 0.00 0.00 98 1008.9
20260507041018 9 113 3.2 9.7 0.00 0.00 0.00 97 1008.9
20260507040030 9 109 4.8 12.9 0.00 0.00 0.00 97 1008.7
20260507035022 9 60 3.2 9.7 0.00 0.00 0.00 97 1008.8
20260507034033 9 97 3.2 8.0 0.00 0.00 0.00 97 1008.8
20260507033024 9 106 3.2 6.4 0.00 0.00 0.00 97 1008.7
20260507032019 9 92 3.2 6.4 0.00 0.00 0.00 97 1008.7
20260507031029 10 108 3.2 6.4 0.00 0.00 0.00 97 1008.7
20260507030020 10 117 3.2 6.4 0.00 0.00 0.00 97 1008.7
20260507025032 10 97 1.6 4.8 0.00 0.00 0.00 97 1008.7
20260507024023 10 83 1.6 4.8 0.00 0.00 0.00 97 1008.7
20260507023038 10 68 1.6 4.8 0.00 0.00 0.00 96 1008.8
20260507022026 10 85 3.2 6.4 0.00 0.00 0.00 97 1008.7
20260507021018 10 104 3.2 8.0 0.00 0.00 0.00 96 1008.7
20260507020030 10 84 3.2 6.4 0.00 0.00 0.00 96 1008.6
20260507015021 10 70 3.2 6.4 0.00 0.00 0.00 96 1008.7
20260507014033 10 78 3.2 6.4 0.00 0.00 0.00 96 1008.7
20260507013024 10 84 3.2 6.4 0.00 0.00 0.00 97 1008.5
20260507012035 10 130 1.6 4.8 0.00 0.00 0.00 96 1008.4
20260507011027 10 74 1.6 6.4 0.00 0.00 0.00 96 1008.3
20260507010018 10 86 3.2 4.8 0.00 0.00 0.00 96 1008.4
20260507005030 10 55 3.2 6.4 0.00 0.00 0.00 96 1008.4
20260507004021 10 38 3.2 6.4 0.00 0.00 0.00 96 1008.4
20260507003033 10 17 4.8 11.3 0.00 0.00 0.00 96 1008.3
20260507002024 10 210 1.6 6.4 0.00 0.00 0.00 95 1008.3
20260507001036 10 7 1.6 9.7 0.00 0.00 0.00 95 1008.4
20260507000027 10 180 3.2 12.9 0.00 0.00 0.00 95 1008.4
20260506235018 11 14 3.2 8.0 0.00 0.00 0.00 95 1008.6
20260506234031 11 73 1.6 6.4 0.00 0.00 0.00 95 1008.4
20260506233022 11 0.0 0.0 0.00 0.00 0.00 95 1008.3
20260506232034 11 0.0 0.0 0.00 0.00 0.00 94 1008.4
20260506231025 11 0.0 0.0 0.00 0.00 0.00 94 1008.3
20260506230020 11 0.0 3.2 0.00 0.00 0.00 94 1008.2
20260506225029 11 338 0.0 3.2 0.00 0.00 0.00 93 1008.3
20260506224020 11 76 0.0 3.2 0.00 0.00 0.00 91 1008.2
20260506223032 11 34 0.0 1.6 0.00 0.00 0.00 91 1008.2
20260506222024 11 65 0.0 3.2 0.00 0.00 0.00 89 1008.2
20260506221036 11 348 0.0 1.6 0.00 0.00 0.00 89 1008.1
20260506220029 11 0.0 0.0 0.00 0.00 0.00 89 1008.0
20260506215018 11 0.0 0.0 0.00 0.00 0.00 88 1008.1
20260506214028 11 0.0 0.0 0.00 0.00 0.00 86 1008.1
20260506213020 12 150 0.0 3.2 0.00 0.00 0.00 84 1007.9
20260506212032 12 0.0 1.6 0.00 0.00 0.00 82 1007.8
20260506211023 12 285 1.6 4.8 0.00 0.00 0.00 79 1007.7
20260506210035 12 273 3.2 6.4 0.00 0.00 0.00 77 1007.7
20260506205027 12 284 1.6 3.2 0.00 0.00 0.00 76 1007.7
20260506204018 12 326 1.6 4.8 0.00 0.00 0.00 76 1007.6
20260506203029 12 318 1.6 3.2 0.00 0.00 0.00 77 1007.7
20260506202021 13 0.0 0.0 0.00 0.00 0.00 77 1007.8
20260506201032 13 0.0 1.6 0.00 0.00 0.00 75 1007.6
20260506200027 13 269 0.0 4.8 0.00 0.00 0.00 73 1007.6
20260506195036 13 263 3.2 6.4 0.00 0.00 0.00 74 1007.5
20260506194027 13 261 1.6 6.4 0.00 0.00 0.00 76 1007.4
20260506193018 13 0.0 0.0 0.00 0.00 0.00 76 1007.2
20260506192030 13 0.0 0.0 0.00 0.00 0.00 75 1007.1
20260506191021 13 0.0 0.0 0.00 0.00 0.00 76 1006.9
20260506190032 13 0.0 1.6 0.00 0.00 0.00 75 1006.7
20260506185023 13 289 0.0 1.6 0.00 0.00 0.00 75 1006.7
20260506184035 13 0.0 1.6 0.00 0.00 0.00 73 1006.6
20260506183027 13 0.0 1.6 0.00 0.00 0.00 73 1006.5
20260506182018 14 0.0 1.6 0.00 0.00 0.00 73 1006.4
20260506181029 14 281 1.6 3.2 0.00 0.00 0.00 72 1006.4
20260506180021 15 303 1.6 3.2 0.00 0.00 0.00 70 1006.4
20260506175035 15 145 0.0 3.2 0.00 0.00 0.00 68 1006.4
20260506174023 15 174 0.0 1.6 0.00 0.00 0.00 67 1006.4
20260506173038 15 201 0.0 1.6 0.00 0.00 0.00 67 1006.2
20260506172026 15 0.0 1.6 0.00 0.00 0.00 67 1006.0
20260506171018 15 314 0.0 3.2 0.00 0.00 0.00 66 1006.0
20260506170029 15 0.0 1.6 0.00 0.00 0.00 64 1005.9
20260506165021 15 264 0.0 3.2 0.00 0.00 0.00 63 1006.1
20260506164036 15 35 0.0 1.6 0.00 0.00 0.00 63 1006.1
20260506163024 16 319 0.0 3.2 0.00 0.00 0.00 62 1006.2
20260506162036 16 275 0.0 4.8 0.00 0.00 0.00 62 1006.2
20260506161028 16 336 0.0 3.2 0.00 0.00 0.00 59 1006.1
20260506160019 16 328 1.6 3.2 0.00 0.00 0.00 59 1006.2
20260506155031 16 330 1.6 4.8 0.00 0.00 0.00 58 1006.1
20260506154022 16 149 1.6 6.4 0.00 0.00 0.00 54 1006.1
20260506153034 16 18 1.6 3.2 0.00 0.00 0.00 56 1006.2
20260506152025 16 352 0.0 3.2 0.00 0.00 0.00 57 1006.3
20260506151020 16 3 1.6 4.8 0.00 0.00 0.00 58 1006.4
20260506150029 16 163 1.6 4.8 0.00 0.00 0.00 58 1006.4
20260506145020 16 312 1.6 3.2 0.00 0.00 0.00 58 1006.5
20260506144032 16 330 3.2 8.0 0.00 0.00 0.00 57 1006.6
20260506143024 16 7 1.6 6.4 0.00 0.00 0.00 56 1006.5
20260506142036 17 318 1.6 6.4 0.00 0.00 0.00 56 1006.5
20260506141027 16 310 1.6 4.8 0.00 0.00 0.00 56 1006.4
20260506140018 16 135 1.6 4.8 0.00 0.00 0.00 58 1006.5
20260506135030 16 34 1.6 4.8 0.00 0.00 0.00 56 1006.6
20260506134022 16 120 1.6 4.8 0.00 0.00 0.00 58 1006.7
20260506133033 16 85 3.2 6.4 0.00 0.00 0.00 56 1006.8
20260506132024 16 7 1.6 4.8 0.00 0.00 0.00 59 1006.8
20260506131036 16 137 1.6 6.4 0.00 0.00 0.00 56 1006.8
20260506130027 16 327 1.6 3.2 0.00 0.00 0.00 58 1006.9
20260506125019 16 141 3.2 8.0 0.00 0.00 0.00 56 1006.9
20260506124031 16 159 3.2 8.0 0.00 0.00 0.00 59 1006.9
20260506123022 16 123 1.6 8.0 0.00 0.00 0.00 58 1007.0
20260506122034 16 132 3.2 6.4 0.00 0.00 0.00 60 1006.9
20260506121528 16 166 1.6 8.0 0.00 0.00 0.00 62 1007.1
20260506120519 16 132 3.2 14.5 0.00 0.00 0.00 65 1007.2
20260506120027 15 152 1.6 8.0 0.00 0.00 0.00 68 1007.1
20260506115019 15 342 1.6 4.8 0.00 0.00 0.00 71 1007.2
20260506114034 15 127 3.2 8.0 0.00 0.00 0.00 70 1007.2
20260506113026 15 115 1.6 8.0 0.00 0.00 0.00 71 1007.2
20260506112017 15 135 1.6 4.8 0.00 0.00 0.00 71 1007.2
20260506111030 14 138 1.6 8.0 0.00 0.00 0.00 71 1007.2
20260506110021 14 31 1.6 3.2 0.00 0.00 0.00 73 1007.2
20260506105033 15 26 1.6 6.4 0.00 0.00 0.00 73 1007.3
20260506104025 15 328 1.6 4.8 0.00 0.00 0.00 71 1007.2
20260506103018 15 22 3.2 4.8 0.00 0.00 0.00 70 1007.3
20260506102028 15 18 1.6 4.8 0.00 0.00 0.00 72 1007.3
20260506101020 14 78 3.2 9.7 0.00 0.00 0.00 73 1007.3
20260506100032 13 86 3.2 9.7 0.00 0.00 0.00 77 1007.3
20260506095023 12 54 1.6 3.2 0.00 0.00 0.00 81 1007.3
20260506094035 13 47 1.6 6.4 0.00 0.00 0.00 79 1007.4
20260506093026 13 81 1.6 4.8 0.00 0.00 0.00 75 1007.4
20260506092020 14 126 3.2 8.0 0.00 0.00 0.00 73 1007.4
20260506091029 14 105 3.2 12.9 0.00 0.00 0.00 74 1007.2
20260506090020 13 93 3.2 12.9 0.00 0.00 0.00 77 1007.2
20260506085032 13 125 4.8 11.3 0.00 0.00 0.00 78 1007.0
20260506084023 12 110 3.2 9.7 0.00 0.00 0.00 80 1007.1
20260506083035 13 79 3.2 8.0 0.00 0.00 0.00 77 1006.9
20260506082027 12 59 1.6 6.4 0.00 0.00 0.00 79 1007.0